Regional Weather Roundup
Issued by NWS

Home | Current Version | Previous Version | Text Only | Print | Product List | Glossary On
Versions: 1 2 3 4 5 6 7 8 9 10 11 12 13 14 15 16 17 18 19 20 21 22 23 24 25 26 27 28 29 30 31 32 33 34 35 36 37 38 39 40 41 42 43 44 45 46 47 48 49 50
000
ASUS43 KMKX 181511
RWRWI

WISCONSIN REGIONAL WEATHER ROUNDUP
NATIONAL WEATHER SERVICE MILWAUKEE/SULLIVAN WI
1000 AM CDT FRI APR 18 2014

NOTE: "FAIR" INDICATES FEW OR NO CLOUDS BELOW 12,000 FEET WITH NO
SIGNIFICANT WEATHER AND/OR OBSTRUCTIONS TO VISIBILITY.

WIZ001-002-006>008-014>016-023>028-181600-
NORTHWEST WISCONSIN

CITY           SKY/WX    TMP DP  RH WIND       PRES   REMARKS
SUPERIOR ARPT  SUNNY     35  23  60 CALM      30.42S
ASHLAND        SUNNY     34  22  61 CALM      30.42S
HAYWARD        CLOUDY    31  25  78 CALM      30.39S
SIREN          CLOUDY    37  26  64 S5        30.39S WCI  34
RICE LAKE      PTSUNNY   30  29  96 CALM      30.41S
LADYSMITH      CLOUDY    35  25  67 NW5       30.40F WCI  30
EAU CLAIRE     CLOUDY    36  29  75 CALM      30.39R
MENOMONIE      CLOUDY    34  31  86 CALM      30.40S
NEW RICHMOND   CLOUDY    38  29  69 CALM      30.38S
OSCEOLA        CLOUDY    37  29  73 CALM      30.41S
$$

WIZ003>005-009-010-017-018-181600-
NORTH CENTRAL WISCONSIN

CITY           SKY/WX    TMP DP  RH WIND       PRES   REMARKS
WOODRUFF       CLOUDY    37  27  67 N7        30.36R WCI  31
RHINELANDER    SUNNY     32  23  69 N6        30.36R WCI  26
EAGLE RIVER    CLOUDY    32  22  68 N7        30.34S WCI  26
LAND O LAKES   CLOUDY    31  26  82 W5        30.35R WCI  26
PHILLIPS       MOSUNNY   32  23  70 N5        30.37S WCI  27
TOMAHAWK       SUNNY     34  23  64 CALM      30.37R
MEDFORD        SUNNY     34  25  69 NW6       30.37S WCI  29
MERRILL        SUNNY     35  24  62 CALM      30.37S
$$

WIZ029-030-035-036-043>047-181600-
CENTRAL WISCONSIN

CITY           SKY/WX    TMP DP  RH WIND       PRES   REMARKS
WAUSAU         MOSUNNY   36  24  62 NW9       30.36R WCI  29
MOSINEE        SUNNY     36  28  75 NW6       30.38R WCI  31
MARSHFIELD     MOSUNNY   38  26  62 N9        30.37S WCI  31
STEVENS POINT  SUNNY     37  24  59 N7        30.38S WCI  31
WAUPACA        SUNNY     43  25  49 N5        30.39R
WAUTOMA        SUNNY     41  26  55 N9        30.38S
WISC RAPIDS    SUNNY     40  24  53 VRB7      30.39S
CAMP DOUGLAS   MOSUNNY   41  25  52 VRB6      30.39R
$$

WIZ011>013-019>022-031-037>040-048>050-181600-
NORTHEAST WISCONSIN

CITY           SKY/WX    TMP DP  RH WIND       PRES   REMARKS
ANTIGO         MOSUNNY   34  24  66 NW7       30.35S WCI  28
STURGEON BAY   CLOUDY    36  23  60 NW12      30.38R WCI  27
GREEN BAY      NOT AVBL
MANITOWOC      CLOUDY    38  28  67 VRB6      30.38R WCI  33
APPLETON       PTSUNNY   39  27  60 N7        30.37R WCI  34
CLINTONVILLE   MOSUNNY   37  27  65 NW3       30.38R
OSHKOSH        MOSUNNY   39  27  62 VRB5      30.38R
$$

WIZ032>034-041-042-053>061-181600-
SOUTHWEST WISCONSIN

CITY           SKY/WX    TMP DP  RH WIND       PRES   REMARKS
LA CROSSE      PTSUNNY   43  28  55 VRB5      30.39F
SPARTA         SUNNY     40  26  56 N6        30.40S
VIROQUA        FAIR      39  29  66 NE8       30.37S WCI  34
BOSCOBEL       SUNNY     42  29  59 N6        30.38F
PRAIRIE DU CHI SUNNY     41  30  65 CALM      30.38S
PLATTEVILLE    FAIR      42  32  69 NE3       30.37F
$$

WIZ056-057-062-063-064-067-068-181600-
SOUTH CENTRAL WISCONSIN

CITY           SKY/WX    TMP DP  RH WIND       PRES   REMARKS
BARABOO/DELLS  SUNNY     39  27  62 NE5       30.37S
LONE ROCK      MOSUNNY   41  31  67 VRB3      30.39R
WATERTOWN      SUNNY     41  32  70 NW7       30.36S
MADISON        MOSUNNY   42  30  62 NE10      30.38R
MIDDLETON      FAIR      42  30  63 NE3       30.37S
MONROE         SUNNY     43  35  74 N6        30.35S
JANESVILLE     SUNNY     45  32  61 N6        30.35S
$$

WIZ051-052-058>065-066-070>072-181600-
SOUTHEAST WISCONSIN

CITY           SKY/WX    TMP DP  RH WIND       PRES   REMARKS
MILWAUKEE      PTSUNNY   41  32  70 N13       30.38R
WAUKESHA       PTSUNNY   41  32  70 N3        30.36R
MILWAUKEE/TIMM CLOUDY    41  30  65 NE6       30.36R
RACINE         PTSUNNY   41  31  67 N15G22    30.37S
BURLINGTON     CLOUDY    41  33  74 NE5       30.35R
KENOSHA        PTSUNNY   44  34  67 NE13      30.35R
FOND DU LAC    CLOUDY    38  27  64 NW8       30.38R WCI  32
SHEBOYGAN      CLOUDY    39  30  70 NE6       30.37R WCI  35
WEST BEND      CLOUDY    39  30  70 N3        30.36R
JUNEAU         CLOUDY    38  29  68 N6        30.38R WCI  34
$$

LSZ147-162-181600-
LAKE SUPERIOR

STATION/POSITION TIME  TEMP    WIND        PRES    WAVE
                       AIR SEA DIR/SP/G            HT/PER
                 (UTC) (F)     (DEG/KT/KT) (MB)    (FT/S)
DEVILS ISLAND    1500   31     340/  8/  9 1031.1R
PORT WING        1400   32      CALM  /  1 1030.1
SAXON HARBOR     1400             CALM     1029.8R
$$

LMZ867-665-643>646-181600-
LAKE MICHIGAN

STATION/POSITION TIME  TEMP    WIND        PRES    WAVE
                       AIR SEA DIR/SP/G            HT/PER
                 (UTC) (F)     (DEG/KT/KT) (MB)    (FT/S)
NORTHPORT PIER   1400   34     310/  6/  7 1027.8S
SISTER BAY       1423   38        CALM       N/A
KEWAUNEE LAKESHO 1400   37     350/  6/  8 1028.5S
SHEBOYGAN LAKESH 1500   37      40/  9/ 10 1029.3R
PORT WASHINGTON  1400   41      50/  7/ 11 1028.4R
MILWAUKEE LAKESH 1400   38      10/ 12/ 16   N/A
KENOSHA   LAKESH 1500   38      20/ 19/ 20   N/A
$$

TC  - TEMPERATURE IN CELSIUS
VSB - VISIBILITY IN STATUTE MILES
WCI - WIND CHILL INDEX
HX  - HEAT INDEX




USA.gov is the U.S. government's official web portal to all federal, state and local government web resources and services.